Time,TemperatureF,DewpointF,PressureIn,WindDirection,WindDirectionDegrees,WindSpeedMPH,WindSpeedGustMPH,Humidity,HourlyPrecipIn,Conditions,Clouds,dailyrainin,SolarRadiationWatts/m^2,SoftwareType,DateUTC
2013-01-25 00:03:00,9.0,-4.0,-100.00,North,7,4.0,12.0,54,0.00,,,0.00,0.000000,,2013-01-25 05:03:00,
2013-01-25 00:32:00,8.0,-4.0,-100.00,North,8,4.0,10.0,58,0.00,,,0.00,0.000000,,2013-01-25 05:32:00,
2013-01-25 00:43:00,8.0,-4.0,-100.00,North,8,4.0,10.0,58,0.00,,,0.00,0.000000,,2013-01-25 05:43:00,
2013-01-25 00:52:00,8.0,-4.0,-100.00,North,8,4.0,10.0,58,0.00,,,0.00,0.000000,,2013-01-25 05:52:00,
2013-01-25 01:02:00,8.0,-4.0,-100.00,North,8,4.0,10.0,58,0.00,,,0.00,0.000000,,2013-01-25 06:02:00,
2013-01-25 01:32:00,8.0,-3.0,-100.00,NNW,347,5.0,15.0,59,0.00,,,0.00,0.000000,,2013-01-25 06:32:00,
2013-01-25 01:42:00,8.0,-3.0,-100.00,NNW,347,5.0,15.0,59,0.00,,,0.00,0.000000,,2013-01-25 06:42:00,
2013-01-25 01:52:00,8.0,-3.0,-100.00,NNW,347,5.0,15.0,59,0.00,,,0.00,0.000000,,2013-01-25 06:52:00,
2013-01-25 02:02:00,8.0,-3.0,-100.00,NNW,347,5.0,15.0,59,0.00,,,0.00,0.000000,,2013-01-25 07:02:00,
2013-01-25 02:32:00,7.0,-4.0,-100.00,North,356,3.0,11.0,60,0.00,,,0.00,0.000000,,2013-01-25 07:32:00,
2013-01-25 02:42:00,7.0,-4.0,-100.00,North,356,3.0,11.0,60,0.00,,,0.00,0.000000,,2013-01-25 07:42:00,
2013-01-25 02:52:00,7.0,-4.0,-100.00,North,356,3.0,11.0,60,0.00,,,0.00,0.000000,,2013-01-25 07:52:00,
2013-01-25 03:02:00,7.0,-4.0,-100.00,North,356,3.0,11.0,60,0.00,,,0.00,0.000000,,2013-01-25 08:02:00,
2013-01-25 03:32:00,6.0,-5.0,-100.00,North,4,5.0,9.0,61,0.00,,,0.00,0.000000,,2013-01-25 08:32:00,
2013-01-25 03:42:00,6.0,-5.0,-100.00,North,4,5.0,9.0,61,0.00,,,0.00,0.000000,,2013-01-25 08:42:00,
2013-01-25 03:52:00,6.0,-5.0,-100.00,North,4,5.0,9.0,61,0.00,,,0.00,0.000000,,2013-01-25 08:52:00,
2013-01-25 04:02:00,6.0,-5.0,-100.00,North,4,5.0,9.0,61,0.00,,,0.00,0.000000,,2013-01-25 09:02:00,
2013-01-25 04:32:00,6.0,-4.0,-100.00,NNE,12,4.0,9.0,64,0.00,,,0.00,0.000000,,2013-01-25 09:32:00,
2013-01-25 04:42:00,6.0,-4.0,-100.00,NNE,12,4.0,9.0,64,0.00,,,0.00,0.000000,,2013-01-25 09:42:00,
2013-01-25 04:52:00,6.0,-4.0,-100.00,NNE,12,4.0,9.0,64,0.00,,,0.00,0.000000,,2013-01-25 09:52:00,
2013-01-25 05:02:00,6.0,-4.0,-100.00,NNE,12,4.0,9.0,64,0.00,,,0.00,0.000000,,2013-01-25 10:02:00,
2013-01-25 05:32:00,7.0,-2.0,-100.00,NNE,18,4.0,7.0,65,0.00,,,0.00,0.000000,,2013-01-25 10:32:00,
2013-01-25 05:42:00,7.0,-2.0,-100.00,NNE,18,4.0,7.0,65,0.00,,,0.00,0.000000,,2013-01-25 10:42:00,
2013-01-25 05:52:00,7.0,-2.0,-100.00,NNE,18,4.0,7.0,65,0.00,,,0.00,0.000000,,2013-01-25 10:52:00,
2013-01-25 06:03:00,7.0,-2.0,-100.00,NNE,18,4.0,7.0,65,0.00,,,0.00,0.000000,,2013-01-25 11:03:00,
2013-01-25 06:33:00,7.0,-3.0,-100.00,North,4,5.0,12.0,64,0.00,,,0.00,0.000000,,2013-01-25 11:33:00,
2013-01-25 06:42:00,7.0,-3.0,-100.00,North,4,5.0,12.0,64,0.00,,,0.00,0.000000,,2013-01-25 11:42:00,
2013-01-25 06:52:00,7.0,-3.0,-100.00,North,4,5.0,12.0,64,0.00,,,0.00,0.000000,,2013-01-25 11:52:00,
2013-01-25 07:03:00,7.0,-3.0,-100.00,North,4,5.0,12.0,64,0.00,,,0.00,0.000000,,2013-01-25 12:03:00,
2013-01-25 07:33:00,7.0,-2.0,-100.00,North,352,4.0,10.0,67,0.00,,,0.00,0.000000,,2013-01-25 12:33:00,
2013-01-25 07:42:00,7.0,-2.0,-100.00,North,352,4.0,10.0,67,0.00,,,0.00,0.000000,,2013-01-25 12:42:00,
2013-01-25 07:53:00,7.0,-2.0,-100.00,North,352,4.0,10.0,67,0.00,,,0.00,0.000000,,2013-01-25 12:53:00,
2013-01-25 08:03:00,7.0,-2.0,-100.00,North,352,4.0,10.0,67,0.00,,,0.00,0.000000,,2013-01-25 13:03:00,
2013-01-25 08:33:00,7.0,-2.0,-100.00,NNW,341,4.0,9.0,66,0.00,,,0.00,7.000000,,2013-01-25 13:33:00,
2013-01-25 08:43:00,7.0,-2.0,-100.00,NNW,341,4.0,9.0,66,0.00,,,0.00,7.000000,,2013-01-25 13:43:00,
2013-01-25 08:53:00,7.0,-2.0,-100.00,NNW,341,4.0,9.0,66,0.00,,,0.00,7.000000,,2013-01-25 13:53:00,
2013-01-25 09:03:00,7.0,-2.0,-100.00,NNW,341,4.0,9.0,66,0.00,,,0.00,7.000000,,2013-01-25 14:03:00,
2013-01-25 09:33:00,8.0,-2.0,-100.00,NE,39,3.0,7.0,62,0.00,,,0.00,49.000000,,2013-01-25 14:33:00,
2013-01-25 09:42:00,8.0,-2.0,-100.00,NE,39,3.0,7.0,62,0.00,,,0.00,49.000000,,2013-01-25 14:42:00,
2013-01-25 09:53:00,8.0,-2.0,-100.00,NE,39,3.0,7.0,62,0.00,,,0.00,49.000000,,2013-01-25 14:53:00,
2013-01-25 10:03:00,8.0,-2.0,-100.00,NE,39,3.0,7.0,62,0.00,,,0.00,49.000000,,2013-01-25 15:03:00,
2013-01-25 10:33:00,10.0,-3.0,-100.00,SE,145,3.0,6.0,55,0.00,,,0.00,87.000000,,2013-01-25 15:33:00,
2013-01-25 10:43:00,10.0,-3.0,-100.00,SE,145,3.0,6.0,55,0.00,,,0.00,87.000000,,2013-01-25 15:43:00,
2013-01-25 10:53:00,10.0,-3.0,-100.00,SE,145,3.0,6.0,55,0.00,,,0.00,87.000000,,2013-01-25 15:53:00,
2013-01-25 11:03:00,10.0,-3.0,-100.00,SE,145,3.0,6.0,55,0.00,,,0.00,87.000000,,2013-01-25 16:03:00,
2013-01-25 11:33:00,12.0,-1.0,-100.00,South,182,4.0,6.0,54,0.00,,,0.00,151.000000,,2013-01-25 16:33:00,
2013-01-25 11:43:00,12.0,-1.0,-100.00,South,182,4.0,6.0,54,0.00,,,0.00,151.000000,,2013-01-25 16:43:00,
2013-01-25 11:53:00,12.0,-1.0,-100.00,South,182,4.0,6.0,54,0.00,,,0.00,151.000000,,2013-01-25 16:53:00,
2013-01-25 12:03:00,12.0,-1.0,-100.00,South,182,4.0,6.0,54,0.00,,,0.00,151.000000,,2013-01-25 17:03:00,
2013-01-25 12:33:00,13.0,0.0,-100.00,South,185,5.0,9.0,54,0.00,,,0.00,199.000000,,2013-01-25 17:33:00,
2013-01-25 12:43:00,13.0,0.0,-100.00,South,185,5.0,9.0,54,0.00,,,0.00,199.000000,,2013-01-25 17:43:00,
2013-01-25 12:53:00,13.0,0.0,-100.00,South,185,5.0,9.0,54,0.00,,,0.00,199.000000,,2013-01-25 17:53:00,
2013-01-25 13:03:00,13.0,0.0,-100.00,South,185,5.0,9.0,54,0.00,,,0.00,199.000000,,2013-01-25 18:03:00,
2013-01-25 13:33:00,13.0,-3.0,-100.00,South,172,6.0,10.0,49,0.00,,,0.00,174.000000,,2013-01-25 18:33:00,
2013-01-25 13:43:00,13.0,-3.0,-100.00,South,172,6.0,10.0,49,0.00,,,0.00,174.000000,,2013-01-25 18:43:00,
2013-01-25 13:53:00,13.0,-3.0,-100.00,South,172,6.0,10.0,49,0.00,,,0.00,174.000000,,2013-01-25 18:53:00,
2013-01-25 14:03:00,13.0,-3.0,-100.00,South,172,6.0,10.0,49,0.00,,,0.00,174.000000,,2013-01-25 19:03:00,
2013-01-25 14:33:00,11.0,2.0,-100.00,SSE,158,7.0,13.0,65,0.00,,,0.00,125.000000,,2013-01-25 19:33:00,
2013-01-25 14:42:00,11.0,2.0,-100.00,SSE,158,7.0,13.0,65,0.00,,,0.00,125.000000,,2013-01-25 19:42:00,
2013-01-25 14:53:00,11.0,2.0,-100.00,SSE,158,7.0,13.0,65,0.00,,,0.00,125.000000,,2013-01-25 19:53:00,
2013-01-25 15:03:00,11.0,2.0,-100.00,SSE,158,7.0,13.0,65,0.00,,,0.00,125.000000,,2013-01-25 20:03:00,
2013-01-25 15:33:00,11.0,8.0,-100.00,SSE,153,7.0,11.0,89,0.00,,,0.00,88.000000,,2013-01-25 20:33:00,
2013-01-25 15:43:00,11.0,8.0,-100.00,SSE,153,7.0,11.0,89,0.00,,,0.00,88.000000,,2013-01-25 20:43:00,
2013-01-25 15:53:00,11.0,8.0,-100.00,SSE,153,7.0,11.0,89,0.00,,,0.00,88.000000,,2013-01-25 20:53:00,
2013-01-25 16:02:00,11.0,8.0,-100.00,SSE,153,7.0,11.0,89,0.00,,,0.00,88.000000,,2013-01-25 21:02:00,
2013-01-25 16:33:00,12.0,10.0,-100.00,SE,141,6.0,13.0,90,0.00,,,0.00,73.000000,,2013-01-25 21:33:00,
2013-01-25 16:43:00,12.0,10.0,-100.00,SE,141,6.0,13.0,90,0.00,,,0.00,73.000000,,2013-01-25 21:43:00,
2013-01-25 16:52:00,12.0,10.0,-100.00,SE,141,6.0,13.0,90,0.00,,,0.00,73.000000,,2013-01-25 21:52:00,
2013-01-25 17:03:00,12.0,10.0,-100.00,SE,141,6.0,13.0,90,0.00,,,0.00,73.000000,,2013-01-25 22:03:00,
2013-01-25 17:33:00,11.0,9.0,-100.00,SE,146,4.0,10.0,93,0.00,,,0.00,20.000000,,2013-01-25 22:33:00,
2013-01-25 17:42:00,11.0,9.0,-100.00,SE,146,4.0,10.0,93,0.00,,,0.00,20.000000,,2013-01-25 22:42:00,
2013-01-25 17:53:00,11.0,9.0,-100.00,SE,146,4.0,10.0,93,0.00,,,0.00,20.000000,,2013-01-25 22:53:00,
2013-01-25 18:02:00,11.0,9.0,-100.00,SE,146,4.0,10.0,93,0.00,,,0.00,20.000000,,2013-01-25 23:02:00,
2013-01-25 18:32:00,11.0,10.0,-100.00,SSE,149,5.0,9.0,94,0.00,,,0.00,1.000000,,2013-01-25 23:32:00,
2013-01-25 18:42:00,11.0,10.0,-100.00,SSE,149,5.0,9.0,94,0.00,,,0.00,1.000000,,2013-01-25 23:42:00,
2013-01-25 18:53:00,11.0,10.0,-100.00,SSE,149,5.0,9.0,94,0.00,,,0.00,1.000000,,2013-01-25 23:53:00,
2013-01-25 19:02:00,11.0,10.0,-100.00,SSE,149,5.0,9.0,94,0.00,,,0.00,1.000000,,2013-01-26 00:02:00,
2013-01-25 19:33:00,11.0,10.0,-100.00,South,171,6.0,10.0,95,0.00,,,0.00,0.000000,,2013-01-26 00:33:00,
2013-01-25 19:42:00,11.0,10.0,-100.00,South,171,6.0,10.0,95,0.00,,,0.00,0.000000,,2013-01-26 00:42:00,
2013-01-25 19:53:00,11.0,10.0,-100.00,South,171,6.0,10.0,95,0.00,,,0.00,0.000000,,2013-01-26 00:53:00,
2013-01-25 20:02:00,11.0,10.0,-100.00,South,171,6.0,10.0,95,0.00,,,0.00,0.000000,,2013-01-26 01:02:00,
2013-01-25 20:32:00,11.0,10.0,-100.00,South,178,6.0,10.0,96,0.00,,,0.00,0.000000,,2013-01-26 01:32:00,
2013-01-25 20:42:00,11.0,10.0,-100.00,South,178,6.0,10.0,96,0.00,,,0.00,0.000000,,2013-01-26 01:42:00,
2013-01-25 20:52:00,11.0,10.0,-100.00,South,178,6.0,10.0,96,0.00,,,0.00,0.000000,,2013-01-26 01:52:00,
2013-01-25 21:02:00,11.0,10.0,-100.00,South,178,6.0,10.0,96,0.00,,,0.00,0.000000,,2013-01-26 02:02:00,
2013-01-25 21:32:00,10.0,9.0,-100.00,SSW,203,6.0,9.0,95,0.00,,,0.00,0.000000,,2013-01-26 02:32:00,
2013-01-25 21:42:00,10.0,9.0,-100.00,SSW,203,6.0,9.0,95,0.00,,,0.00,0.000000,,2013-01-26 02:42:00,
2013-01-25 21:52:00,10.0,9.0,-100.00,SSW,203,6.0,9.0,95,0.00,,,0.00,0.000000,,2013-01-26 02:52:00,
2013-01-25 22:02:00,10.0,9.0,-100.00,SSW,203,6.0,9.0,95,0.00,,,0.00,0.000000,,2013-01-26 03:02:00,
2013-01-25 22:32:00,11.0,10.0,-100.00,SW,224,5.0,8.0,96,0.00,,,0.00,0.000000,,2013-01-26 03:32:00,
2013-01-25 22:43:00,11.0,10.0,-100.00,SW,224,5.0,8.0,96,0.00,,,0.00,0.000000,,2013-01-26 03:43:00,
2013-01-25 22:52:00,11.0,10.0,-100.00,SW,224,5.0,8.0,96,0.00,,,0.00,0.000000,,2013-01-26 03:52:00,
2013-01-25 23:02:00,11.0,10.0,-100.00,SW,224,5.0,8.0,96,0.00,,,0.00,0.000000,,2013-01-26 04:02:00,
2013-01-25 23:32:00,11.0,10.0,-100.00,WSW,251,4.0,9.0,96,0.00,,,0.00,0.000000,,2013-01-26 04:32:00,
2013-01-25 23:43:00,11.0,10.0,-100.00,WSW,251,4.0,9.0,96,0.00,,,0.00,0.000000,,2013-01-26 04:43:00,
2013-01-25 23:52:00,11.0,10.0,-100.00,WSW,251,4.0,9.0,96,0.00,,,0.00,0.000000,,2013-01-26 04:52:00,